{"data":{"norad_id":35951,"intl_designator":"2009-057A","name":"DMSP 5D-3 F18 (USA 210)","alt_names":[],"object_type":"PAYLOAD","status":"ACTIVE","operator":null,"country":"US","launch_date":"2009-10-18","launch_site_code":"AFWTR","launch_vehicle":null,"mission":null,"orbit_class":"UNKNOWN","rcs_meters":3.9811,"size_class":null,"mass_kg":null,"dimensions":null,"purposes":["earth_obs"],"wikipedia_slug":null,"has_3d_model":false,"image_url":null,"decayed_at":null,"tle_current":{"epoch":"2026-09-20T04:21:38.434176Z","epoch_age_seconds":41849,"freshness":"FRESH","line1":"1 35951U 09057A   26263.18169484  .00000148  00000+0  99648-4 0  9996","line2":"2 35951  98.9157 243.7949 0010892 347.6312  12.4592 14.14943067873020","mean_motion":14.14943067,"eccentricity":0.0010892,"inclination_deg":98.9157,"raan_deg":243.7949,"arg_perigee_deg":347.6312,"mean_anomaly_deg":12.4592,"bstar":9.9648e-5,"rev_number":87302,"period_min":101.77087923779,"perigee_km":834.64112594905,"apogee_km":850.3705743338,"semimajor_km":7220.6428501414,"source":"CELESTRAK","updated_at":"2026-09-20T09:00:33.213732Z"}}}